Theta_e
319 321 324 325 327 328 327 327 326 327 329 328 325 327 328 321 321 325 323 324 326 326 331 330 326 329 329 332 338 339 340 342 342 343 344 344 346 347 347 348 348 348 348 347 348 348 348 349 349 349 350 350 350 349 349 349 349 350 349 350 350 349 350
321 317 320 323 326 329 328 325 326 327 328 328 327 325 324 322 323 327 325 322 321 321 329 335 330 329 330 331 337 339 339 341 341 342 343 344 345 346 347 347 348 348 348 348 348 348 348 348 348 349 349 350 350 349 349 348 349 349 349 349 350 349 350
320 317 319 322 324 327 327 327 327 328 327 326 326 325 326 326 325 326 324 324 323 322 327 334 330 330 332 331 334 339 340 340 341 342 343 343 344 345 346 347 347 348 348 348 348 348 348 348 348 349 349 349 350 350 349 348 348 348 349 349 349 350 350
318 319 320 321 323 325 326 326 327 330 329 325 326 326 326 327 327 326 323 321 324 327 330 332 330 331 332 330 332 337 339 339 340 341 342 343 343 344 345 346 347 347 348 348 348 348 348 348 348 348 349 349 349 349 349 349 348 348 348 349 349 349 349
318 322 322 320 322 324 324 323 324 326 326 325 326 325 324 327 329 327 323 320 327 336 335 332 332 332 330 329 331 334 335 337 340 341 341 342 343 344 344 345 346 346 347 348 348 348 348 348 348 348 348 349 349 349 349 349 349 349 349 349 349 349 350
317 320 318 317 319 320 320 322 324 324 324 324 325 324 322 324 327 329 326 321 327 338 335 330 330 330 328 327 329 331 332 334 338 340 341 342 343 343 344 344 345 346 347 347 348 348 348 348 348 348 348 348 349 349 349 349 349 349 349 349 349 349 349
314 314 314 314 316 316 318 322 322 322 323 323 323 324 324 322 323 329 329 322 326 339 339 330 327 328 324 323 326 329 330 332 337 339 340 342 343 343 344 344 345 346 346 347 347 348 348 348 348 348 348 348 348 348 349 349 349 349 349 349 349 349 349
317 316 316 316 316 317 319 321 318 318 321 320 319 323 326 324 321 324 326 322 324 336 343 335 328 327 324 320 323 327 328 330 335 337 339 341 342 343 344 344 345 345 346 347 347 347 348 348 348 348 348 348 348 348 349 349 349 349 349 349 349 349 350
326 321 321 322 320 316 315 316 315 315 318 317 318 322 323 322 322 322 324 322 322 332 344 342 334 333 332 326 322 324 327 330 333 336 338 340 342 342 343 344 345 346 346 347 347 348 348 348 348 348 348 348 348 349 349 349 349 350 349 349 349 349 350
326 324 324 322 318 314 313 314 314 314 315 315 320 324 321 322 325 323 321 322 322 329 339 339 336 338 338 332 324 321 324 328 330 335 337 338 341 342 343 343 345 345 346 347 347 348 348 348 348 348 348 348 348 348 349 349 349 350 350 350 350 350 350
319 319 317 314 313 313 313 314 313 313 314 314 319 323 322 326 329 323 322 325 323 327 332 332 335 334 332 334 331 324 323 324 327 332 335 337 339 340 342 343 344 345 347 347 348 348 348 348 348 348 348 348 349 349 349 349 349 349 350 350 350 350 350
314 313 313 312 313 313 312 313 312 313 314 314 318 321 323 328 327 320 324 329 323 323 329 331 333 331 330 334 334 325 323 325 326 328 331 336 338 340 342 343 343 345 346 347 348 348 348 349 348 348 348 348 349 349 349 349 349 349 350 350 350 350 350
313 312 312 311 312 311 311 312 312 313 314 315 318 321 322 324 325 321 326 334 328 324 327 328 329 330 328 329 328 324 324 326 325 325 327 333 338 340 341 343 344 345 346 347 349 349 348 349 348 348 349 348 348 349 349 349 349 349 350 349 350 350 350
312 312 311 311 311 312 312 312 313 314 316 318 321 324 324 324 325 323 326 333 330 325 329 329 327 327 325 324 325 324 324 324 324 325 325 330 338 340 341 343 344 344 346 346 348 349 349 349 349 349 349 349 349 349 349 349 349 349 349 350 349 350 350
314 312 313 313 312 312 312 312 315 317 321 328 330 330 329 327 326 325 325 327 326 328 336 333 329 333 340 343 342 337 333 329 327 327 327 331 338 341 342 344 344 344 346 346 348 350 349 349 349 349 349 349 349 349 349 350 350 350 350 350 350 350 350
315 313 313 312 311 313 315 317 320 322 325 331 334 335 334 332 333 334 327 322 325 335 336 331 335 349 359 359 352 348 347 340 331 331 334 334 339 342 342 344 344 344 346 347 348 349 349 350 350 349 350 350 349 350 350 350 350 350 350 350 350 350 350
317 314 311 312 315 321 327 325 323 324 325 326 330 336 337 333 336 341 333 328 335 338 337 340 352 361 360 354 350 351 352 348 337 333 337 338 339 342 343 343 345 345 346 347 348 348 349 350 350 350 350 350 350 350 350 350 350 350 350 350 350 350 350
318 315 311 316 323 330 332 327 321 321 325 325 326 332 336 333 334 336 335 335 337 338 343 353 358 356 353 351 350 351 353 352 346 336 337 340 341 342 343 344 345 345 346 346 347 348 348 348 349 350 350 350 350 350 351 351 351 351 351 350 350 350 350
316 316 316 325 332 329 326 325 321 321 323 323 324 329 334 333 331 331 332 334 336 339 345 351 353 351 351 351 352 353 354 354 351 343 336 339 342 342 344 345 345 346 347 347 348 348 348 349 350 350 350 351 351 351 351 351 351 351 351 351 350 351 351
315 317 320 327 329 323 324 326 322 320 322 323 325 330 333 331 329 329 330 330 334 340 343 346 350 350 349 350 353 354 355 356 355 350 341 338 341 343 344 345 346 346 347 347 348 348 348 350 350 350 351 351 350 351 351 351 351 352 352 352 351 351 351
315 317 318 320 321 323 328 328 322 319 321 322 324 328 332 330 327 328 329 328 331 337 343 347 348 348 350 353 354 354 355 356 357 355 347 339 341 343 343 345 345 346 347 348 348 348 349 350 350 350 351 351 351 351 351 352 352 352 352 352 351 351 351
314 315 316 319 324 328 328 324 319 319 320 321 321 325 331 330 325 326 329 328 328 334 344 349 348 350 358 360 355 354 355 356 357 357 352 343 341 343 343 345 346 346 347 348 348 349 349 349 350 351 351 351 351 351 351 351 352 352 352 351 351 351 351
313 314 316 318 323 327 325 320 319 319 320 321 323 330 335 330 324 326 329 328 327 332 342 349 349 354 361 360 354 353 355 355 357 358 355 348 343 343 344 345 346 346 346 347 348 348 349 349 350 350 350 350 351 351 351 351 351 351 351 350 350 350 349
311 313 315 315 318 323 322 319 318 319 320 322 328 338 338 328 323 326 328 328 328 330 339 347 348 352 356 355 352 352 354 356 356 358 358 355 348 344 344 345 346 346 346 347 347 348 348 349 349 349 350 350 350 350 350 350 350 351 349 349 349 349 349
311 313 314 314 318 322 320 318 318 321 324 328 333 337 332 324 324 325 325 328 328 329 336 342 343 345 347 348 350 352 353 355 356 356 358 358 355 350 347 345 345 346 346 347 347 347 348 348 348 349 349 350 350 350 351 350 350 350 349 349 349 349 350
312 313 313 315 321 322 318 318 320 323 328 331 331 329 323 321 323 322 321 326 327 327 332 336 336 340 343 344 348 350 351 353 354 355 357 358 358 357 355 352 349 347 346 347 347 347 347 347 348 349 349 350 351 351 351 351 351 351 351 352 352 352 353
312 312 313 318 323 321 317 319 321 322 324 325 324 323 321 320 321 320 319 322 324 325 329 332 332 336 340 342 344 347 349 351 352 354 356 356 358 360 359 358 357 355 354 353 352 350 349 349 349 349 349 350 352 352 353 353 354 354 354 355 355 356 357
314 314 316 319 320 317 317 321 322 320 319 318 319 321 321 320 320 320 318 319 321 323 326 328 330 331 332 336 341 344 346 349 351 353 354 354 355 357 358 360 360 359 360 360 359 359 358 356 354 353 353 353 353 354 355 355 356 357 357 358 359 360 360
313 314 317 318 317 317 318 318 317 316 315 314 315 316 316 316 318 319 317 317 319 322 324 326 328 328 327 329 335 340 342 344 348 351 352 352 353 353 354 356 357 357 358 359 360 361 361 362 362 360 359 359 359 359 360 360 360 361 361 362 362 363 363
311 312 313 314 314 316 317 314 312 312 312 312 312 312 312 313 316 317 317 317 319 322 322 320 322 326 326 325 328 333 337 341 344 348 351 351 351 351 351 352 352 353 354 354 356 357 358 359 361 361 362 363 363 362 362 363 363 363 363 362 363 363 362
312 314 314 312 311 314 315 314 312 312 311 311 311 310 311 312 314 315 315 316 318 321 319 316 315 319 323 324 323 325 329 333 338 343 347 350 350 350 351 350 349 349 349 349 350 351 352 354 356 357 358 358 360 360 360 359 359 359 359 359 359 359 359
311 313 312 310 310 312 314 313 311 311 311 311 311 310 310 312 314 314 315 316 317 318 318 317 315 314 316 320 321 321 322 325 329 335 341 347 350 351 350 349 348 347 346 347 346 346 346 347 349 351 351 352 354 354 351 349 350 350 350 351 352 352 353
310 310 310 310 311 312 313 312 310 310 310 310 310 311 311 311 312 313 314 315 315 315 316 317 316 314 314 316 318 319 319 321 323 326 332 340 347 350 350 349 348 347 346 345 345 345 344 344 344 345 345 347 349 349 345 345 349 349 348 350 352 352 353
310 310 310 310 310 311 311 311 310 310 310 310 310 311 311 311 311 312 312 313 313 313 314 315 315 314 313 314 316 317 317 318 320 321 324 329 338 346 350 349 347 347 346 345 345 345 345 345 344 343 342 342 343 344 345 348 351 352 353 355 356 358 358
310 310 309 309 309 310 310 310 310 310 310 310 310 311 311 311 310 311 312 313 313 312 312 313 313 313 313 314 315 314 315 317 318 318 320 321 325 334 344 348 348 347 346 346 345 345 345 346 346 346 345 344 343 342 342 343 343 346 351 355 357 359 359
309 309 309 309 310 310 310 310 310 311 311 311 311 312 312 311 310 311 312 313 314 314 313 312 313 313 313 313 314 313 314 317 317 317 317 317 318 324 334 342 346 347 346 345 345 345 345 344 344 344 344 345 346 345 345 343 341 341 344 348 354 358 358
309 309 310 310 310 310 310 311 311 312 313 313 312 313 313 311 311 311 312 312 314 315 313 312 313 313 313 313 313 313 314 316 318 317 316 315 317 319 324 333 341 345 346 345 345 344 343 342 342 341 341 342 345 348 350 349 346 342 340 344 352 358 358
Wind_Speed
4 4 5 8 10 5 4 6 8 6 5 6 3 4 1 2 4 4 3 5 3 2 6 5 4 8 9 12 16 18 23 24 24 26 32 36 39 41 44 46 48 48 47 48 50 51 52 52 53 53 53 53 53 51 50 48 46 45 45 44 43 40 38
5 14 14 7 10 9 5 5 8 5 3 4 4 4 2 3 6 4 2 6 4 4 6 3 4 7 9 10 11 13 17 18 22 28 33 38 42 44 46 50 50 47 47 48 49 50 52 53 54 54 54 54 53 52 50 48 47 46 46 44 43 42 40
9 15 10 5 7 9 7 5 8 7 3 5 5 4 5 5 5 3 3 5 4 6 6 3 7 9 10 10 10 12 12 14 21 28 32 37 41 42 44 48 48 46 46 48 48 50 51 52 53 54 54 53 53 52 51 49 47 45 44 44 44 43 42
8 7 1 3 5 7 5 3 7 6 4 6 6 4 4 4 4 3 3 4 4 6 6 7 10 11 11 11 10 11 12 16 23 28 31 35 38 40 44 47 48 47 48 49 50 51 51 51 51 52 52 52 53 53 52 50 48 46 45 44 44 44 43
6 3 1 1 1 1 3 3 4 5 3 2 4 3 3 4 4 3 3 4 5 6 5 9 12 12 12 13 12 12 14 21 28 31 33 35 37 42 45 47 48 50 51 51 51 51 50 48 48 49 51 52 53 53 52 52 50 49 48 46 45 45 43
4 5 6 3 3 2 2 3 2 5 4 3 4 5 3 3 4 4 3 4 6 6 4 7 10 11 12 13 13 12 16 25 32 33 35 37 39 44 46 47 49 50 52 51 50 49 47 47 47 49 51 52 52 53 53 52 51 50 49 48 47 46 44
7 15 16 10 7 6 5 3 2 2 2 3 4 5 4 4 4 3 3 5 7 6 6 7 9 9 10 13 13 11 16 25 31 34 36 38 41 45 46 47 48 49 51 50 48 47 48 49 49 50 51 52 53 53 53 52 52 51 50 48 47 46 45
7 12 10 4 2 1 1 1 4 4 3 2 2 5 4 4 4 4 4 7 7 5 4 5 6 6 6 10 14 14 16 22 29 33 35 35 39 42 44 45 46 47 46 45 44 46 48 49 49 50 51 52 52 53 52 53 52 52 50 49 48 47 47
5 5 2 1 4 5 3 3 5 4 6 9 7 4 2 3 7 8 7 9 6 2 2 2 4 6 5 7 11 15 16 19 25 33 37 38 39 41 42 44 44 42 41 42 44 47 49 50 51 51 51 52 52 53 53 53 52 51 51 49 49 48 47
2 3 2 0 4 6 5 6 8 8 9 10 6 2 1 4 6 7 7 8 4 2 1 3 3 4 5 7 9 13 17 20 21 26 34 38 39 41 42 43 43 42 42 44 47 49 50 52 52 51 51 52 52 52 52 52 51 51 51 50 49 49 48
5 4 2 2 4 6 8 12 15 13 8 6 3 1 2 3 3 5 8 8 5 5 5 5 6 6 7 7 7 9 17 23 24 24 31 37 41 43 45 45 44 43 44 45 48 50 51 52 52 52 51 51 52 52 52 51 51 50 50 49 49 49 48
7 7 6 6 7 8 10 14 16 15 12 7 4 6 6 2 1 6 7 6 9 12 9 8 9 10 8 7 8 11 17 22 26 27 29 35 40 43 44 44 44 44 46 47 48 50 51 51 51 51 50 50 51 51 51 50 50 50 49 49 49 49 49
7 7 6 8 9 9 10 12 14 16 14 11 8 9 9 6 4 5 6 6 12 15 10 8 9 9 8 9 13 18 22 24 28 30 30 32 38 42 42 43 44 46 48 48 48 50 50 50 51 49 48 49 49 49 50 49 49 49 49 48 48 48 48
5 6 7 8 8 7 9 11 13 14 14 14 13 13 12 11 9 9 11 12 15 13 7 4 6 6 6 10 12 16 20 24 27 29 31 33 37 41 44 45 46 48 50 50 49 49 50 50 50 50 48 49 49 49 49 49 49 49 48 48 48 48 48
4 5 5 5 5 7 10 13 12 11 11 11 10 9 8 8 9 11 14 15 13 6 5 7 8 7 6 6 9 11 14 18 21 25 30 34 36 40 43 45 47 49 49 49 48 47 49 51 51 51 50 50 50 49 49 49 49 48 48 47 47 47 47
3 2 1 4 8 8 9 9 9 7 6 7 6 4 3 3 5 7 9 10 8 6 9 10 8 8 8 6 10 15 18 16 15 23 27 31 34 38 41 44 46 48 48 47 47 47 49 51 51 51 50 49 49 49 49 49 48 47 47 46 46 46 46
4 1 2 7 8 5 4 4 2 4 3 6 7 4 6 6 3 4 5 6 6 9 10 8 5 6 7 7 11 15 20 20 14 18 22 27 33 37 42 44 46 48 48 47 49 49 50 51 52 52 51 50 50 50 49 48 47 47 46 45 45 44 44
3 3 5 5 2 2 3 5 4 4 2 5 9 6 7 9 5 3 5 6 9 11 8 5 3 4 7 9 14 17 19 21 16 14 18 22 28 33 39 43 46 48 48 48 49 49 50 50 51 51 50 50 49 48 46 46 46 45 45 44 44 43 43
3 3 4 0 5 2 2 3 5 7 3 5 11 8 4 12 12 10 9 9 11 11 9 5 1 4 7 13 21 24 22 22 16 10 15 19 24 30 35 39 43 45 46 47 47 47 48 48 48 48 47 46 46 45 44 44 44 44 43 43 42 42 42
1 2 1 3 4 3 3 0 5 9 5 7 11 5 4 13 15 14 14 14 14 12 10 11 8 5 5 12 24 28 24 22 18 7 9 16 22 29 33 37 40 42 44 45 46 46 46 46 45 46 46 45 45 44 43 43 43 42 42 42 41 41 41
1 0 2 2 4 4 2 2 5 7 4 6 8 4 3 11 15 16 15 15 16 13 12 15 13 9 5 8 18 27 26 22 18 9 4 13 18 23 29 33 35 37 40 41 42 42 43 43 43 43 43 44 44 43 41 41 41 41 41 41 40 40 40
2 1 1 2 3 2 2 2 6 7 7 8 6 5 3 9 17 20 17 15 17 15 13 14 10 5 4 7 11 21 26 23 17 11 2 10 15 18 22 27 30 32 35 36 37 38 38 39 38 39 41 42 41 41 41 40 40 40 40 40 39 39 38
1 2 1 2 3 4 1 4 8 10 10 8 3 3 0 9 19 24 20 16 17 16 14 12 7 4 6 4 7 18 24 22 19 14 7 9 15 17 19 23 26 29 31 32 32 33 33 33 33 34 36 38 39 40 39 39 39 39 39 38 36 35 33
2 2 2 2 3 3 4 6 11 16 14 5 2 3 2 10 19 25 22 18 19 20 18 13 9 5 4 3 9 20 23 22 21 18 13 12 15 18 18 20 22 24 27 28 28 28 28 28 29 30 32 34 35 36 36 37 38 37 35 33 31 30 30
4 4 3 3 3 2 5 9 16 19 11 1 3 2 3 11 19 24 23 21 23 25 20 14 9 8 12 15 19 25 27 25 24 22 19 17 18 20 21 21 22 22 23 24 24 25 24 24 25 27 28 30 31 32 33 34 34 32 30 28 28 28 28
3 3 3 4 3 1 7 14 17 14 4 2 2 4 7 13 18 23 26 24 26 27 21 15 16 20 26 29 27 28 29 28 27 25 24 24 23 22 23 23 24 24 25 25 25 24 24 24 24 25 26 28 28 29 30 29 28 27 27 27 26 26 27
2 3 3 3 1 4 14 16 11 8 5 3 7 9 12 17 19 23 27 27 28 28 24 23 28 32 32 31 30 30 30 29 28 27 27 28 27 27 27 27 26 26 26 26 25 25 25 25 25 25 25 27 27 27 27 26 25 25 25 26 26 26 27
1 3 1 0 1 7 15 10 5 8 9 9 13 13 13 19 22 24 27 29 30 30 28 28 31 33 32 32 32 32 31 30 29 28 28 29 29 28 29 28 28 28 28 27 25 24 23 24 25 25 25 26 26 27 26 25 24 23 23 24 25 25 26
2 3 4 1 1 5 11 14 15 14 13 11 14 17 16 20 24 24 26 31 33 32 31 31 30 30 32 32 32 32 31 30 29 27 26 27 27 27 27 27 27 27 28 28 28 28 26 24 24 24 24 25 26 25 24 24 23 23 22 23 23 23 23
6 7 7 2 4 5 11 17 17 15 13 11 13 19 21 22 23 23 24 30 33 32 32 34 32 30 31 32 32 32 31 30 28 26 25 24 24 24 24 24 23 23 24 26 27 28 28 26 26 25 24 24 24 24 23 22 21 21 20 19 20 21 20
5 3 3 4 10 7 4 11 13 12 12 12 13 17 21 21 21 21 21 26 30 30 32 35 34 32 32 33 31 30 29 28 27 26 23 21 21 21 22 21 20 20 20 21 23 24 24 23 24 25 24 24 24 23 23 21 21 20 20 20 20 21 21
4 4 4 12 17 10 3 10 11 11 14 15 13 14 17 17 17 18 17 20 26 28 30 32 33 33 34 33 31 29 28 27 26 25 23 21 18 18 19 19 17 17 18 18 19 20 20 19 19 20 22 22 22 21 22 21 19 19 19 19 20 20 21
6 6 5 13 15 5 7 7 10 14 17 20 17 16 16 13 14 17 16 15 19 24 26 27 29 30 32 32 29 28 27 26 26 24 22 20 18 16 16 16 15 15 16 17 17 17 17 16 14 15 16 17 16 17 19 19 18 18 18 17 17 17 18
4 3 6 10 9 4 5 14 21 19 18 20 20 21 20 14 14 18 17 13 15 19 21 21 23 26 28 29 28 26 25 25 25 24 22 21 19 16 14 13 13 14 15 17 17 17 17 16 15 13 12 11 11 11 13 14 15 15 16 15 15 15 14
7 11 15 15 12 12 16 22 24 21 19 19 22 24 22 16 15 16 15 14 16 18 18 18 19 22 24 25 25 25 24 22 21 21 22 22 20 17 14 12 11 12 13 15 17 18 19 18 17 16 14 12 9 7 7 9 11 12 13 13 12 12 12
13 17 20 20 17 18 21 22 23 24 23 23 26 25 21 18 18 15 11 12 14 15 16 16 15 17 20 21 22 22 21 20 19 19 19 20 20 18 15 13 11 10 11 13 16 17 18 19 19 18 16 13 11 8 5 4 6 8 10 10 10 10 10
17 19 21 22 22 24 24 23 24 25 23 22 25 25 21 19 18 14 11 11 12 11 13 14 14 14 16 18 19 20 18 17 17 17 17 17 17 17 16 15 12 10 9 9 12 14 15 16 17 17 15 14 12 10 9 7 4 3 5 8 9 9 8
Wind_Direction
320 345 296 187 170 184 179 174 193 195 159 153 199 241 189 125 224 244 221 240 259 250 273 275 219 228 220 216 225 223 221 213 200 199 203 205 208 208 209 212 214 214 211 212 212 211 212 211 211 213 214 215 217 219 221 222 224 225 226 227 227 227 228
317 349 330 251 188 164 151 190 190 152 114 154 184 237 250 208 233 264 254 237 217 191 252 269 173 207 225 222 223 227 223 204 194 201 204 204 207 207 209 212 215 214 212 212 212 212 213 212 212 213 214 215 217 219 221 222 223 225 226 227 228 228 228
314 338 334 266 212 187 179 177 167 153 160 180 179 210 221 215 234 271 276 261 223 198 227 224 186 203 219 220 222 229 225 201 198 206 206 206 206 206 208 211 213 213 212 213 213 213 214 213 213 213 214 215 216 218 221 223 225 226 227 228 228 229 229
323 318 266 213 228 219 210 161 158 169 185 186 185 193 190 199 221 243 274 289 259 227 214 191 197 206 207 208 212 221 225 214 207 207 207 207 205 205 208 210 211 212 214 214 214 214 214 213 213 212 212 213 215 217 220 222 224 225 227 228 228 229 229
328 275 196 163 147 231 231 202 176 183 196 187 198 209 174 170 191 204 245 264 255 248 210 187 200 206 203 202 201 207 218 219 216 211 208 207 205 206 209 210 210 212 214 215 215 214 214 212 211 211 212 213 215 216 218 220 222 224 225 226 227 228 229
318 270 284 318 10 352 254 252 231 201 195 157 185 225 214 181 200 187 192 250 262 256 214 194 204 208 205 201 198 203 211 213 217 216 212 209 208 209 211 211 211 212 213 214 213 212 210 210 210 211 212 212 213 215 217 219 221 223 225 226 227 228 229
264 268 276 282 284 271 239 248 308 303 268 141 175 227 213 193 220 176 167 256 264 240 211 204 208 211 214 209 198 200 210 210 214 218 215 212 211 213 213 213 212 213 213 212 211 209 208 209 211 211 210 211 212 214 216 217 219 222 224 226 228 228 229
272 269 270 283 302 272 176 310 357 350 322 340 283 252 197 186 212 176 200 252 249 225 219 226 233 238 237 223 209 206 212 209 210 217 219 215 214 215 215 214 214 213 212 209 207 207 207 208 209 210 209 210 211 213 215 216 218 221 223 225 227 228 228
313 288 269 11 9 23 20 322 324 319 330 342 323 268 175 217 214 176 194 242 240 224 266 283 282 281 280 260 236 227 225 215 207 212 217 218 216 216 215 214 213 211 208 206 206 206 206 207 209 210 209 209 210 212 214 216 218 220 221 223 225 226 228
228 234 190 200 324 333 323 303 307 317 337 343 329 311 293 253 220 175 200 232 217 127 255 253 249 250 262 274 265 248 241 236 222 212 214 218 218 216 214 213 211 208 207 206 206 206 206 207 208 209 208 208 210 211 214 216 218 218 219 221 223 224 226
222 242 254 259 274 293 300 303 306 308 311 312 305 273 246 234 194 199 228 243 247 237 235 242 241 228 229 246 253 244 237 238 237 226 218 219 219 217 215 212 209 206 206 207 206 206 206 206 207 208 208 208 209 210 212 215 217 217 218 219 221 223 226
238 257 279 283 282 285 286 292 296 296 294 289 254 230 243 272 216 229 239 255 263 254 227 208 233 241 234 227 224 232 238 241 245 241 229 221 219 217 214 211 207 204 205 207 206 205 205 205 206 208 207 208 209 210 212 213 214 216 217 218 220 223 225
244 251 270 276 278 277 271 272 277 280 285 283 261 245 248 250 245 265 278 250 249 259 249 214 228 239 231 223 223 233 243 248 249 245 233 221 216 214 211 208 205 204 205 207 206 204 204 203 204 206 206 206 208 210 211 213 214 216 218 219 221 223 224
251 248 264 270 272 276 275 271 268 272 279 277 267 257 246 238 242 271 282 266 254 261 276 276 274 279 260 250 246 242 243 247 247 240 231 221 213 208 207 205 204 204 206 207 205 203 202 202 203 204 205 206 207 209 211 212 214 216 218 220 221 223 225
262 251 256 263 270 280 281 277 274 277 285 289 280 263 252 244 240 250 260 265 265 279 0 341 315 334 340 304 300 289 270 260 248 233 224 218 209 203 204 203 203 204 205 205 203 201 201 202 203 204 206 207 208 209 210 212 214 216 217 219 221 223 226
274 246 252 297 299 290 271 267 282 289 303 331 327 299 310 292 253 256 258 257 270 319 345 327 320 7 24 5 346 333 321 302 254 225 217 212 203 200 200 201 202 202 203 203 201 201 203 203 203 205 206 206 206 208 210 212 213 214 216 218 221 224 226
272 263 328 317 311 299 243 211 286 301 308 350 335 324 3 350 287 261 258 255 297 318 318 315 332 24 36 21 4 349 337 324 279 231 218 210 203 200 200 200 201 202 202 203 203 204 205 205 206 207 206 207 209 210 211 211 211 212 215 218 221 223 226
269 288 325 321 250 223 216 150 71 342 313 6 341 322 2 1 336 287 273 279 309 316 315 322 353 45 55 37 22 13 358 342 310 251 226 215 207 204 203 202 202 202 203 204 205 206 207 208 208 207 207 209 210 209 208 208 210 212 215 218 221 224 226
269 317 353 301 181 211 271 149 50 4 9 14 338 309 2 13 357 344 335 321 317 319 313 296 315 57 52 42 30 22 13 1 340 272 229 219 211 206 205 203 202 201 202 202 204 206 208 207 206 204 205 206 207 206 207 209 211 213 216 218 222 225 227
283 347 98 187 215 302 325 157 25 14 24 13 350 322 17 18 5 353 345 330 322 323 310 291 287 307 353 34 31 20 14 11 2 329 227 218 215 211 207 205 203 202 202 203 204 205 205 205 204 203 204 205 207 208 209 210 212 214 216 219 223 226 228
160 184 225 265 295 312 3 30 0 358 340 339 342 299 327 10 6 353 344 333 326 324 318 311 300 289 318 23 21 12 13 15 10 1 212 205 211 212 210 207 206 204 203 204 204 204 204 204 204 204 204 205 207 208 209 211 212 213 216 219 224 227 229
108 92 271 311 295 225 144 352 330 325 307 308 303 255 292 6 359 348 344 338 330 324 325 327 312 295 23 29 2 1 10 17 19 21 101 179 190 201 204 204 205 204 203 203 203 203 203 203 204 204 204 206 207 208 210 211 212 214 217 221 225 228 230
75 108 202 255 229 212 256 327 322 317 312 316 294 215 345 2 348 343 342 340 335 328 331 351 10 50 56 44 353 1 11 20 28 37 71 142 165 180 191 198 200 201 202 202 202 202 203 203 204 204 205 207 208 209 211 212 213 215 220 224 227 229 232
224 201 231 259 237 256 322 335 326 317 315 337 124 173 16 348 338 339 341 339 337 331 336 5 39 55 52 44 21 22 28 35 40 47 68 107 141 158 169 182 191 195 196 197 197 199 202 204 204 204 205 207 210 212 213 214 215 219 223 227 229 231 233
230 221 230 270 254 279 327 324 322 318 315 21 119 138 357 331 328 338 342 339 339 341 351 17 29 25 39 49 48 44 44 46 48 55 70 92 119 139 150 162 174 181 186 189 192 195 197 199 201 201 203 206 210 213 214 215 218 223 226 228 229 231 234
223 202 222 274 252 345 342 329 333 342 1 104 41 28 10 343 335 343 346 345 346 348 357 19 27 34 45 49 51 50 47 46 49 57 71 84 100 118 133 146 157 166 172 177 183 186 187 190 195 197 199 203 206 209 212 216 221 224 225 227 229 231 233
212 196 227 272 225 342 335 329 341 21 55 15 345 357 2 356 352 350 349 350 351 350 357 17 30 37 42 42 46 50 48 47 50 57 68 77 87 102 115 125 136 147 154 160 167 174 179 184 189 192 195 198 201 205 208 213 217 219 222 226 227 229 232
182 184 215 347 229 319 337 352 47 63 57 28 5 1 358 355 355 352 349 350 352 354 1 14 27 34 36 37 43 47 46 46 49 55 64 72 80 91 101 109 119 129 134 136 141 149 160 172 181 187 191 193 195 199 203 207 211 214 218 223 225 228 231
310 253 264 326 28 355 24 59 73 63 58 46 19 10 8 360 353 349 347 349 355 2 6 12 21 27 29 35 42 43 43 45 46 51 60 67 74 83 91 99 107 115 120 123 127 130 136 148 161 172 183 188 188 190 195 202 208 211 215 219 223 226 229
314 271 246 265 16 28 62 75 71 57 52 47 19 7 7 6 359 351 349 351 357 5 10 11 15 17 20 30 38 41 42 44 45 49 56 62 69 76 82 90 97 105 112 118 123 125 128 135 145 155 168 178 180 181 185 192 200 206 210 215 220 223 225
331 269 218 360 345 329 72 82 69 49 30 23 15 1 359 4 2 354 355 359 1 7 12 10 10 12 14 20 27 33 37 39 41 44 47 54 64 70 73 79 88 98 105 111 117 121 125 132 141 149 158 166 171 174 179 185 192 198 204 209 214 217 219
313 274 312 347 337 317 128 94 63 33 2 353 359 357 354 2 359 348 354 3 0 3 8 7 5 9 12 14 17 22 26 29 33 36 39 45 57 67 71 75 80 87 92 97 105 113 117 124 135 146 154 160 163 166 174 182 188 191 196 202 207 212 215
286 270 331 0 355 9 114 80 13 356 338 328 329 332 334 344 347 340 346 360 355 353 360 2 360 3 9 12 14 18 19 19 21 26 32 40 49 58 66 71 72 75 82 87 92 98 103 110 122 136 147 156 162 165 171 178 181 183 185 188 192 199 204
280 295 350 356 344 309 272 300 309 314 315 312 311 312 312 317 330 334 338 346 343 341 348 355 354 354 2 10 13 16 19 15 13 15 20 29 41 50 57 64 67 69 74 79 83 87 91 97 105 112 123 138 152 165 176 182 184 185 184 183 186 190 193
283 296 305 306 294 275 277 287 292 295 297 294 293 295 296 295 305 320 327 329 328 331 338 349 350 348 355 5 8 11 15 14 12 14 13 14 23 36 44 50 56 63 72 76 78 82 85 88 91 94 98 107 120 143 173 190 196 196 193 189 188 191 194
283 287 290 289 281 274 276 279 282 286 286 282 281 284 282 280 288 298 303 304 308 317 330 344 352 352 355 1 3 3 6 8 8 12 12 8 11 21 34 42 45 52 67 73 72 75 80 82 81 81 84 89 96 103 120 159 187 196 199 196 191 192 196
288 288 290 287 279 276 278 280 281 283 282 276 275 275 271 270 274 275 276 283 286 295 316 335 348 354 357 0 359 356 358 360 360 2 7 10 11 14 23 34 41 43 49 59 64 68 73 74 72 69 71 78 86 91 93 96 107 139 179 191 189 189 193